Time,TemperatureF,DewpointF,PressureIn,WindDirection,WindDirectionDegrees,WindSpeedMPH,WindSpeedGustMPH,Humidity,HourlyPrecipIn,Conditions,Clouds,dailyrainin,SoftwareType,DateUTC
2013-01-25 00:04:00,42.0,40.1,30.12,South,182,0.0,0.0,93,0.00,,,0.17,Wunderground v.1.15,2013-01-25 08:04:00,
2013-01-25 00:10:00,41.9,40.0,30.12,South,182,0.0,0.0,93,0.00,,,0.17,Wunderground v.1.15,2013-01-25 08:10:00,
2013-01-25 00:16:00,41.9,40.0,30.12,South,182,0.0,0.0,93,0.00,,,0.18,Wunderground v.1.15,2013-01-25 08:16:00,
2013-01-25 00:22:00,41.9,40.0,30.12,South,182,0.0,0.0,93,0.00,,,0.18,Wunderground v.1.15,2013-01-25 08:22:00,
2013-01-25 00:28:00,41.9,40.0,30.12,South,181,0.0,0.0,93,0.04,,,0.19,Wunderground v.1.15,2013-01-25 08:28:00,
2013-01-25 00:33:00,41.8,39.9,30.12,South,178,0.0,0.0,93,0.04,,,0.19,Wunderground v.1.15,2013-01-25 08:33:00,
2013-01-25 00:39:00,41.7,39.8,30.12,South,178,0.0,0.0,93,0.06,,,0.20,Wunderground v.1.15,2013-01-25 08:39:00,
2013-01-25 00:44:00,41.7,39.8,30.12,South,178,0.0,0.0,93,0.12,,,0.21,Wunderground v.1.15,2013-01-25 08:44:00,
2013-01-25 00:50:00,41.6,39.7,30.12,South,176,0.0,0.0,93,0.11,,,0.22,Wunderground v.1.15,2013-01-25 08:50:00,
2013-01-25 00:55:00,41.6,39.7,30.12,South,176,0.0,0.0,93,0.06,,,0.22,Wunderground v.1.15,2013-01-25 08:55:00,
2013-01-25 01:01:00,41.6,39.7,30.12,South,176,0.0,0.0,93,0.04,,,0.22,Wunderground v.1.15,2013-01-25 09:01:00,
2013-01-25 01:06:00,41.6,40.0,30.12,South,176,0.0,0.0,94,0.00,,,0.22,Wunderground v.1.15,2013-01-25 09:06:00,
2013-01-25 01:12:00,41.6,40.0,30.12,South,169,2.0,2.0,94,0.00,,,0.23,Wunderground v.1.15,2013-01-25 09:12:00,
2013-01-25 01:17:00,41.6,40.0,30.12,SSE,162,0.0,2.0,94,0.00,,,0.23,Wunderground v.1.15,2013-01-25 09:17:00,
2013-01-25 01:23:00,41.6,40.0,30.12,SSE,162,0.0,1.0,94,0.04,,,0.24,Wunderground v.1.15,2013-01-25 09:23:00,
2013-01-25 01:28:00,41.7,40.1,30.12,SSE,162,0.0,1.0,94,0.04,,,0.24,Wunderground v.1.15,2013-01-25 09:28:00,
2013-01-25 01:34:00,41.7,40.1,30.12,SSE,162,0.0,2.0,94,0.07,,,0.25,Wunderground v.1.15,2013-01-25 09:34:00,
2013-01-25 01:39:00,41.7,40.1,30.12,SSE,161,0.0,1.0,94,0.07,,,0.25,Wunderground v.1.15,2013-01-25 09:39:00,
2013-01-25 01:44:00,41.6,40.0,30.12,SSE,155,2.0,3.0,94,0.06,,,0.26,Wunderground v.1.15,2013-01-25 09:44:00,
2013-01-25 01:50:00,41.7,40.1,30.11,SE,141,1.0,2.0,94,0.07,,,0.27,Wunderground v.1.15,2013-01-25 09:50:00,
2013-01-25 01:55:00,41.7,40.1,30.12,SE,140,2.0,2.0,94,0.07,,,0.27,Wunderground v.1.15,2013-01-25 09:55:00,
2013-01-25 02:00:00,41.7,40.1,30.11,SE,138,2.0,2.0,94,0.08,,,0.28,Wunderground v.1.15,2013-01-25 10:00:00,
2013-01-25 02:05:00,41.8,40.2,30.12,SE,138,3.0,3.0,94,0.11,,,0.29,Wunderground v.1.15,2013-01-25 10:05:00,
2013-01-25 02:10:00,41.8,40.2,30.12,SE,138,1.0,1.0,94,0.07,,,0.29,Wunderground v.1.15,2013-01-25 10:10:00,
2013-01-25 02:15:00,41.9,40.3,30.12,SE,138,0.0,2.0,94,0.06,,,0.30,Wunderground v.1.15,2013-01-25 10:15:00,
2013-01-25 02:20:00,42.0,40.4,30.12,SE,138,0.0,0.0,94,0.06,,,0.30,Wunderground v.1.15,2013-01-25 10:20:00,
2013-01-25 02:26:00,42.1,40.5,30.12,SE,138,0.0,4.0,94,0.04,,,0.01,Wunderground v.1.15,2013-01-25 10:26:00,
2013-01-25 02:31:00,42.2,40.6,30.12,SE,138,0.0,0.0,94,0.04,,,0.01,Wunderground v.1.15,2013-01-25 10:31:00,
2013-01-25 02:36:00,42.2,40.6,30.12,SE,138,0.0,1.0,94,0.04,,,0.01,Wunderground v.1.15,2013-01-25 10:36:00,
2013-01-25 02:41:00,42.2,40.6,30.11,SE,138,0.0,2.0,94,0.04,,,0.01,Wunderground v.1.15,2013-01-25 10:41:00,
2013-01-25 02:46:00,42.2,40.6,30.12,SE,138,0.0,2.0,94,0.04,,,0.02,Wunderground v.1.15,2013-01-25 10:46:00,
2013-01-25 02:51:00,42.2,40.6,30.12,SE,138,0.0,0.0,94,0.04,,,0.02,Wunderground v.1.15,2013-01-25 10:51:00,
2013-01-25 02:56:00,42.3,40.7,30.11,SE,138,0.0,4.0,94,0.04,,,0.02,Wunderground v.1.15,2013-01-25 10:56:00,
2013-01-25 03:01:00,42.3,40.7,30.11,SE,138,0.0,0.0,94,0.00,,,0.02,Wunderground v.1.15,2013-01-25 11:01:00,
2013-01-25 03:06:00,42.3,41.0,30.11,SE,138,0.0,0.0,95,0.00,,,0.02,Wunderground v.1.15,2013-01-25 11:06:00,
2013-01-25 03:11:00,42.4,41.1,30.11,SE,138,0.0,2.0,95,0.00,,,0.02,Wunderground v.1.15,2013-01-25 11:11:00,
2013-01-25 03:16:00,42.4,41.1,30.11,SE,138,0.0,2.0,95,0.00,,,0.02,Wunderground v.1.15,2013-01-25 11:16:00,
2013-01-25 03:21:00,42.5,41.2,30.11,SE,138,1.0,1.0,95,0.00,,,0.02,Wunderground v.1.15,2013-01-25 11:21:00,
2013-01-25 03:26:00,42.5,41.2,30.11,SE,138,0.0,3.0,95,0.00,,,0.03,Wunderground v.1.15,2013-01-25 11:26:00,
2013-01-25 03:31:00,42.6,41.3,30.11,SE,138,0.0,1.0,95,0.00,,,0.03,Wunderground v.1.15,2013-01-25 11:31:00,
2013-01-25 03:36:00,42.7,41.4,30.10,SE,138,0.0,1.0,95,0.00,,,0.03,Wunderground v.1.15,2013-01-25 11:36:00,
2013-01-25 03:41:00,42.8,41.5,30.11,SE,138,0.0,3.0,95,0.00,,,0.03,Wunderground v.1.15,2013-01-25 11:41:00,
2013-01-25 03:46:00,42.9,41.6,30.11,SE,138,0.0,3.0,95,0.00,,,0.03,Wunderground v.1.15,2013-01-25 11:46:00,
2013-01-25 03:51:00,42.9,41.6,30.10,SE,138,0.0,0.0,95,0.00,,,0.03,Wunderground v.1.15,2013-01-25 11:51:00,
2013-01-25 03:56:00,42.9,41.6,30.10,SE,138,0.0,0.0,95,0.00,,,0.03,Wunderground v.1.15,2013-01-25 11:56:00,
2013-01-25 04:01:00,43.0,41.7,30.10,SE,138,0.0,0.0,95,0.00,,,0.03,Wunderground v.1.15,2013-01-25 12:01:00,
2013-01-25 04:06:00,43.0,41.7,30.10,SE,138,0.0,0.0,95,0.00,,,0.03,Wunderground v.1.15,2013-01-25 12:06:00,
2013-01-25 04:11:00,43.1,41.8,30.10,SE,138,0.0,0.0,95,0.00,,,0.03,Wunderground v.1.15,2013-01-25 12:11:00,
2013-01-25 04:16:00,43.1,41.8,30.10,SE,138,0.0,0.0,95,0.00,,,0.03,Wunderground v.1.15,2013-01-25 12:16:00,
2013-01-25 04:21:00,43.2,41.9,30.10,SE,138,0.0,0.0,95,0.00,,,0.03,Wunderground v.1.15,2013-01-25 12:21:00,
2013-01-25 04:26:00,43.3,42.0,30.10,SE,142,0.0,3.0,95,0.00,,,0.03,Wunderground v.1.15,2013-01-25 12:26:00,
2013-01-25 04:32:00,43.3,42.0,30.10,SE,142,0.0,0.0,95,0.00,,,0.03,Wunderground v.1.15,2013-01-25 12:32:00,
2013-01-25 04:37:00,43.4,42.1,30.10,SE,142,0.0,1.0,95,0.00,,,0.03,Wunderground v.1.15,2013-01-25 12:37:00,
2013-01-25 04:42:00,43.5,42.2,30.10,SE,143,0.0,0.0,95,0.00,,,0.03,Wunderground v.1.15,2013-01-25 12:42:00,
2013-01-25 04:47:00,43.5,42.2,30.10,SSE,157,1.0,5.0,95,0.00,,,0.03,Wunderground v.1.15,2013-01-25 12:47:00,
2013-01-25 04:52:00,43.6,42.3,30.10,SSE,163,1.0,4.0,95,0.00,,,0.03,Wunderground v.1.15,2013-01-25 12:52:00,
2013-01-25 04:57:00,43.6,42.3,30.10,SSW,194,1.0,5.0,95,0.00,,,0.03,Wunderground v.1.15,2013-01-25 12:57:00,
2013-01-25 05:02:00,43.7,42.4,30.10,SSW,199,0.0,4.0,95,0.00,,,0.03,Wunderground v.1.15,2013-01-25 13:02:00,
2013-01-25 05:07:00,43.7,42.4,30.10,SSW,200,0.0,4.0,95,0.00,,,0.03,Wunderground v.1.15,2013-01-25 13:07:00,
2013-01-25 05:12:00,43.8,42.5,30.10,SSW,197,4.0,5.0,95,0.00,,,0.03,Wunderground v.1.15,2013-01-25 13:12:00,
2013-01-25 05:17:00,43.8,42.5,30.10,SSW,198,2.0,7.0,95,0.00,,,0.03,Wunderground v.1.15,2013-01-25 13:17:00,
2013-01-25 05:22:00,43.8,42.5,30.11,SSW,199,3.0,3.0,95,0.00,,,0.03,Wunderground v.1.15,2013-01-25 13:22:00,
2013-01-25 05:27:00,43.9,42.6,30.10,South,191,2.0,4.0,95,0.00,,,0.03,Wunderground v.1.15,2013-01-25 13:27:00,
2013-01-25 05:32:00,43.9,42.6,30.10,South,188,0.0,2.0,95,0.00,,,0.03,Wunderground v.1.15,2013-01-25 13:32:00,
2013-01-25 05:37:00,44.0,42.7,30.11,South,190,0.0,3.0,95,0.00,,,0.03,Wunderground v.1.15,2013-01-25 13:37:00,
2013-01-25 05:42:00,44.0,42.7,30.10,SSW,210,0.0,7.0,95,0.00,,,0.03,Wunderground v.1.15,2013-01-25 13:42:00,
2013-01-25 05:47:00,44.0,42.7,30.11,SSW,208,0.0,7.0,95,0.00,,,0.03,Wunderground v.1.15,2013-01-25 13:47:00,
2013-01-25 05:52:00,44.1,42.8,30.11,SSW,207,0.0,0.0,95,0.00,,,0.03,Wunderground v.1.15,2013-01-25 13:52:00,
2013-01-25 05:57:00,44.1,42.8,30.11,SSW,204,0.0,1.0,95,0.00,,,0.03,Wunderground v.1.15,2013-01-25 13:57:00,
2013-01-25 06:02:00,44.1,42.8,30.11,SSW,204,0.0,0.0,95,0.00,,,0.03,Wunderground v.1.15,2013-01-25 14:02:00,
2013-01-25 06:07:00,44.1,42.8,30.10,SSW,199,0.0,0.0,95,0.00,,,0.03,Wunderground v.1.15,2013-01-25 14:07:00,
2013-01-25 06:12:00,44.1,42.8,30.10,SSW,194,0.0,2.0,95,0.00,,,0.03,Wunderground v.1.15,2013-01-25 14:12:00,
2013-01-25 06:17:00,44.2,42.9,30.10,SSW,195,0.0,2.0,95,0.00,,,0.03,Wunderground v.1.15,2013-01-25 14:17:00,
2013-01-25 06:22:00,44.2,42.9,30.10,SSW,195,0.0,1.0,95,0.00,,,0.03,Wunderground v.1.15,2013-01-25 14:22:00,
2013-01-25 06:27:00,44.2,42.9,30.10,SSW,198,0.0,4.0,95,0.00,,,0.03,Wunderground v.1.15,2013-01-25 14:27:00,
2013-01-25 06:32:00,44.1,42.8,30.10,SSW,199,1.0,4.0,95,0.00,,,0.03,Wunderground v.1.15,2013-01-25 14:32:00,
2013-01-25 06:37:00,44.1,42.8,30.11,SSW,200,2.0,4.0,95,0.00,,,0.03,Wunderground v.1.15,2013-01-25 14:37:00,
2013-01-25 06:42:00,44.2,42.9,30.11,SSW,202,0.0,3.0,95,0.00,,,0.03,Wunderground v.1.15,2013-01-25 14:42:00,
2013-01-25 06:48:00,44.1,42.8,30.10,SSW,204,4.0,4.0,95,0.00,,,0.03,Wunderground v.1.15,2013-01-25 14:48:00,
2013-01-25 06:53:00,44.2,42.9,30.10,SSW,200,1.0,5.0,95,0.00,,,0.03,Wunderground v.1.15,2013-01-25 14:53:00,
2013-01-25 06:58:00,44.3,43.0,30.10,SSW,204,2.0,5.0,95,0.00,,,0.03,Wunderground v.1.15,2013-01-25 14:58:00,
2013-01-25 07:03:00,44.3,43.0,30.10,SW,227,1.0,6.0,95,0.00,,,0.03,Wunderground v.1.15,2013-01-25 15:03:00,
2013-01-25 07:08:00,44.4,43.1,30.10,SW,225,2.0,9.0,95,0.00,,,0.03,Wunderground v.1.15,2013-01-25 15:08:00,
2013-01-25 07:13:00,44.6,43.3,30.10,SW,225,7.0,7.0,95,0.00,,,0.03,Wunderground v.1.15,2013-01-25 15:13:00,
2013-01-25 07:18:00,44.6,43.3,30.10,WSW,243,9.0,9.0,95,0.00,,,0.03,Wunderground v.1.15,2013-01-25 15:18:00,
2013-01-25 07:23:00,44.7,43.4,30.10,SW,232,6.0,9.0,95,0.00,,,0.03,Wunderground v.1.15,2013-01-25 15:23:00,
2013-01-25 07:28:00,44.8,43.5,30.10,SSW,196,7.0,11.0,95,0.00,,,0.03,Wunderground v.1.15,2013-01-25 15:28:00,
2013-01-25 07:33:00,44.9,43.3,30.10,SW,230,4.0,10.0,94,0.00,,,0.03,Wunderground v.1.15,2013-01-25 15:33:00,
2013-01-25 07:38:00,45.0,43.4,30.10,SSE,164,7.0,13.0,94,0.00,,,0.03,Wunderground v.1.15,2013-01-25 15:38:00,
2013-01-25 07:43:00,45.1,43.5,30.10,SSW,192,6.0,10.0,94,0.00,,,0.03,Wunderground v.1.15,2013-01-25 15:43:00,
2013-01-25 07:48:00,45.2,43.6,30.10,SSW,213,6.0,11.0,94,0.00,,,0.03,Wunderground v.1.15,2013-01-25 15:48:00,
2013-01-25 07:53:00,45.2,43.6,30.10,SW,224,3.0,11.0,94,0.00,,,0.03,Wunderground v.1.15,2013-01-25 15:53:00,
2013-01-25 07:58:00,45.2,43.3,30.10,SW,214,10.0,11.0,93,0.00,,,0.03,Wunderground v.1.15,2013-01-25 15:58:00,
2013-01-25 08:03:00,45.2,43.3,30.10,SW,227,2.0,12.0,93,0.00,,,0.03,Wunderground v.1.15,2013-01-25 16:03:00,
2013-01-25 08:08:00,45.3,43.4,30.10,South,187,10.0,13.0,93,0.00,,,0.03,Wunderground v.1.15,2013-01-25 16:08:00,
2013-01-25 08:13:00,45.4,43.2,30.10,WNW,288,0.0,15.0,92,0.00,,,0.03,Wunderground v.1.15,2013-01-25 16:13:00,
2013-01-25 08:18:00,45.6,43.4,30.10,SSW,213,3.0,15.0,92,0.00,,,0.03,Wunderground v.1.15,2013-01-25 16:18:00,
2013-01-25 08:23:00,45.6,43.1,30.10,WSW,243,2.0,9.0,91,0.00,,,0.03,Wunderground v.1.15,2013-01-25 16:23:00,
2013-01-25 08:28:00,45.7,43.2,30.11,SW,234,3.0,9.0,91,0.00,,,0.03,Wunderground v.1.15,2013-01-25 16:28:00,
2013-01-25 08:33:00,45.7,43.2,30.11,South,191,0.0,12.0,91,0.00,,,0.03,Wunderground v.1.15,2013-01-25 16:33:00,
2013-01-25 08:38:00,45.8,43.3,30.11,WSW,258,2.0,12.0,91,0.00,,,0.03,Wunderground v.1.15,2013-01-25 16:38:00,
2013-01-25 08:43:00,45.9,43.4,30.11,WSW,246,2.0,6.0,91,0.00,,,0.03,Wunderground v.1.15,2013-01-25 16:43:00,
2013-01-25 08:48:00,45.9,43.1,30.11,WSW,240,0.0,6.0,90,0.00,,,0.03,Wunderground v.1.15,2013-01-25 16:48:00,
2013-01-25 08:53:00,46.0,43.2,30.11,West,271,2.0,6.0,90,0.00,,,0.03,Wunderground v.1.15,2013-01-25 16:53:00,
2013-01-25 08:58:00,46.0,43.2,30.11,South,176,1.0,7.0,90,0.00,,,0.03,Wunderground v.1.15,2013-01-25 16:58:00,
2013-01-25 09:03:00,46.1,43.0,30.11,SSW,192,2.0,9.0,89,0.00,,,0.03,Wunderground v.1.15,2013-01-25 17:03:00,
2013-01-25 09:08:00,46.1,43.0,30.11,WSW,237,0.0,11.0,89,0.00,,,0.03,Wunderground v.1.15,2013-01-25 17:08:00,
2013-01-25 09:13:00,46.2,42.8,30.11,WSW,246,2.0,12.0,88,0.00,,,0.03,Wunderground v.1.15,2013-01-25 17:13:00,
2013-01-25 09:18:00,46.3,42.9,30.11,West,271,0.0,12.0,88,0.00,,,0.03,Wunderground v.1.15,2013-01-25 17:18:00,
2013-01-25 09:23:00,46.4,43.0,30.11,WSW,246,5.0,9.0,88,0.00,,,0.03,Wunderground v.1.15,2013-01-25 17:23:00,
2013-01-25 09:28:00,46.4,43.0,30.11,WSW,257,1.0,9.0,88,0.00,,,0.03,Wunderground v.1.15,2013-01-25 17:28:00,
2013-01-25 09:33:00,46.5,43.1,30.11,WSW,252,2.0,7.0,88,0.00,,,0.03,Wunderground v.1.15,2013-01-25 17:33:00,
2013-01-25 09:38:00,46.5,42.8,30.11,SW,228,0.0,9.0,87,0.00,,,0.03,Wunderground v.1.15,2013-01-25 17:38:00,
2013-01-25 09:43:00,46.9,43.2,30.12,SSW,208,1.0,3.0,87,0.00,,,0.03,Wunderground v.1.15,2013-01-25 17:43:00,
2013-01-25 09:48:00,47.3,43.6,30.11,SSW,205,0.0,3.0,87,0.00,,,0.03,Wunderground v.1.15,2013-01-25 17:48:00,
2013-01-25 09:53:00,47.4,43.4,30.11,SSW,202,0.0,2.0,86,0.00,,,0.03,Wunderground v.1.15,2013-01-25 17:53:00,
2013-01-25 09:58:00,47.6,43.6,30.12,SSW,202,0.0,2.0,86,0.00,,,0.03,Wunderground v.1.15,2013-01-25 17:58:00,
2013-01-25 10:03:00,47.7,43.7,30.12,SSW,204,0.0,2.0,86,0.00,,,0.03,Wunderground v.1.15,2013-01-25 18:03:00,
2013-01-25 10:08:00,47.7,43.7,30.12,SSW,199,0.0,2.0,86,0.00,,,0.03,Wunderground v.1.15,2013-01-25 18:08:00,
2013-01-25 10:13:00,47.7,43.7,30.12,SSW,197,0.0,0.0,86,0.00,,,0.03,Wunderground v.1.15,2013-01-25 18:13:00,
2013-01-25 10:18:00,47.3,43.6,30.12,South,190,0.0,0.0,87,0.00,,,0.03,Wunderground v.1.15,2013-01-25 18:18:00,
2013-01-25 10:24:00,47.5,44.1,30.12,SSW,196,0.0,0.0,88,0.00,,,0.03,Wunderground v.1.15,2013-01-25 18:24:00,
2013-01-25 10:29:00,47.6,43.9,30.12,SSW,200,0.0,2.0,87,0.00,,,0.03,Wunderground v.1.15,2013-01-25 18:29:00,
2013-01-25 10:34:00,47.7,43.7,30.12,SSW,210,0.0,3.0,86,0.00,,,0.03,Wunderground v.1.15,2013-01-25 18:34:00,
2013-01-25 10:39:00,47.7,43.7,30.11,SSW,205,0.0,4.0,86,0.00,,,0.03,Wunderground v.1.15,2013-01-25 18:39:00,
2013-01-25 10:44:00,47.7,43.7,30.11,SSW,200,0.0,2.0,86,0.00,,,0.03,Wunderground v.1.15,2013-01-25 18:44:00,
2013-01-25 10:49:00,47.7,43.7,30.11,SSW,202,0.0,4.0,86,0.00,,,0.03,Wunderground v.1.15,2013-01-25 18:49:00,
2013-01-25 10:54:00,47.7,44.0,30.11,SSW,202,0.0,1.0,87,0.00,,,0.03,Wunderground v.1.15,2013-01-25 18:54:00,
2013-01-25 10:59:00,47.8,44.1,30.11,SSW,202,0.0,1.0,87,0.00,,,0.03,Wunderground v.1.15,2013-01-25 18:59:00,
2013-01-25 11:04:00,47.8,44.1,30.11,SSW,202,0.0,1.0,87,0.00,,,0.03,Wunderground v.1.15,2013-01-25 19:04:00,
2013-01-25 11:09:00,47.9,43.9,30.11,SSW,213,2.0,2.0,86,0.00,,,0.03,Wunderground v.1.15,2013-01-25 19:09:00,
2013-01-25 11:14:00,47.8,43.8,30.11,SSW,213,0.0,2.0,86,0.00,,,0.03,Wunderground v.1.15,2013-01-25 19:14:00,
2013-01-25 11:19:00,47.8,43.8,30.11,SSW,205,1.0,2.0,86,0.00,,,0.03,Wunderground v.1.15,2013-01-25 19:19:00,
2013-01-25 11:24:00,47.7,43.7,30.10,SSW,204,0.0,4.0,86,0.00,,,0.03,Wunderground v.1.15,2013-01-25 19:24:00,
2013-01-25 11:29:00,47.6,43.6,30.10,SSW,201,0.0,1.0,86,0.00,,,0.03,Wunderground v.1.15,2013-01-25 19:29:00,
2013-01-25 11:34:00,47.7,44.0,30.10,SSW,201,2.0,3.0,87,0.00,,,0.03,Wunderground v.1.15,2013-01-25 19:34:00,
2013-01-25 11:39:00,47.7,44.0,30.10,SSW,204,2.0,2.0,87,0.00,,,0.03,Wunderground v.1.15,2013-01-25 19:39:00,
2013-01-25 11:44:00,47.8,44.1,30.10,SSW,202,0.0,3.0,87,0.00,,,0.03,Wunderground v.1.15,2013-01-25 19:44:00,
2013-01-25 11:49:00,47.8,43.8,30.09,SSW,198,0.0,0.0,86,0.00,,,0.03,Wunderground v.1.15,2013-01-25 19:49:00,
2013-01-25 11:54:00,47.9,44.2,30.09,SSW,198,0.0,0.0,87,0.00,,,0.03,Wunderground v.1.15,2013-01-25 19:54:00,
2013-01-25 11:59:00,48.1,44.1,30.08,SSW,196,0.0,0.0,86,0.00,,,0.03,Wunderground v.1.15,2013-01-25 19:59:00,
2013-01-25 12:04:00,48.1,44.1,30.08,South,188,0.0,2.0,86,0.00,,,0.03,Wunderground v.1.15,2013-01-25 20:04:00,
2013-01-25 12:09:00,48.4,44.4,30.08,South,189,0.0,0.0,86,0.00,,,0.03,Wunderground v.1.15,2013-01-25 20:09:00,
2013-01-25 12:14:00,48.6,44.3,30.08,South,186,0.0,2.0,85,0.00,,,0.03,Wunderground v.1.15,2013-01-25 20:14:00,
2013-01-25 12:20:00,48.4,44.1,30.08,SSW,194,4.0,4.0,85,0.00,,,0.03,Wunderground v.1.15,2013-01-25 20:20:00,
2013-01-25 12:25:00,48.3,44.0,30.08,SSW,210,0.0,5.0,85,0.00,,,0.03,Wunderground v.1.15,2013-01-25 20:25:00,
2013-01-25 12:30:00,48.6,44.6,30.08,SSW,210,0.0,0.0,86,0.00,,,0.03,Wunderground v.1.15,2013-01-25 20:30:00,
2013-01-25 12:35:00,48.7,44.4,30.08,SSW,207,0.0,0.0,85,0.00,,,0.03,Wunderground v.1.15,2013-01-25 20:35:00,
2013-01-25 12:40:00,49.1,44.8,30.07,SSW,207,0.0,0.0,85,0.00,,,0.03,Wunderground v.1.15,2013-01-25 20:40:00,
2013-01-25 12:45:00,49.1,44.5,30.07,SSW,207,0.0,0.0,84,0.00,,,0.03,Wunderground v.1.15,2013-01-25 20:45:00,
2013-01-25 12:50:00,49.2,44.3,30.06,SSW,205,0.0,1.0,83,0.00,,,0.03,Wunderground v.1.15,2013-01-25 20:50:00,
2013-01-25 12:55:00,49.4,43.5,30.06,SSW,206,0.0,6.0,80,0.00,,,0.03,Wunderground v.1.15,2013-01-25 20:55:00,
2013-01-25 13:00:00,49.7,43.5,30.06,SSW,203,0.0,1.0,79,0.00,,,0.03,Wunderground v.1.15,2013-01-25 21:00:00,
2013-01-25 13:05:00,49.8,43.5,30.06,SSW,200,0.0,3.0,79,0.00,,,0.03,Wunderground v.1.15,2013-01-25 21:05:00,
2013-01-25 13:10:00,49.9,44.3,30.06,SSW,204,0.0,0.0,81,0.00,,,0.03,Wunderground v.1.15,2013-01-25 21:10:00,
2013-01-25 13:15:00,49.7,44.1,30.06,SSW,194,0.0,3.0,81,0.00,,,0.03,Wunderground v.1.15,2013-01-25 21:15:00,
2013-01-25 13:20:00,49.6,44.0,30.06,SSW,192,0.0,1.0,81,0.00,,,0.03,Wunderground v.1.15,2013-01-25 21:20:00,
2013-01-25 13:25:00,49.4,43.5,30.06,SSW,194,0.0,4.0,80,0.00,,,0.03,Wunderground v.1.15,2013-01-25 21:25:00,
2013-01-25 13:30:00,49.4,43.5,30.06,SSW,194,1.0,1.0,80,0.00,,,0.03,Wunderground v.1.15,2013-01-25 21:30:00,
2013-01-25 13:35:00,49.7,43.8,30.05,SSW,194,0.0,1.0,80,0.00,,,0.03,Wunderground v.1.15,2013-01-25 21:35:00,
2013-01-25 13:40:00,49.7,43.8,30.05,SSW,197,0.0,2.0,80,0.00,,,0.03,Wunderground v.1.15,2013-01-25 21:40:00,
2013-01-25 13:45:00,49.9,44.0,30.05,SSW,197,0.0,2.0,80,0.00,,,0.03,Wunderground v.1.15,2013-01-25 21:45:00,
2013-01-25 13:50:00,49.8,43.5,30.05,SSW,198,0.0,0.0,79,0.00,,,0.03,Wunderground v.1.15,2013-01-25 21:50:00,
2013-01-25 13:55:00,49.7,43.8,30.05,SSW,199,1.0,2.0,80,0.00,,,0.03,Wunderground v.1.15,2013-01-25 21:55:00,
2013-01-25 14:00:00,49.6,43.7,30.05,SSW,200,2.0,2.0,80,0.00,,,0.03,Wunderground v.1.15,2013-01-25 22:00:00,
2013-01-25 14:05:00,49.5,43.9,30.04,SSW,201,0.0,2.0,81,0.00,,,0.03,Wunderground v.1.15,2013-01-25 22:05:00,
2013-01-25 14:10:00,49.7,43.8,30.04,SSW,201,0.0,0.0,80,0.00,,,0.03,Wunderground v.1.15,2013-01-25 22:10:00,
2013-01-25 14:15:00,50.1,43.8,30.04,SSW,201,1.0,3.0,79,0.00,,,0.03,Wunderground v.1.15,2013-01-25 22:15:00,
2013-01-25 14:20:00,50.3,44.0,30.04,SSW,201,0.0,0.0,79,0.00,,,0.03,Wunderground v.1.15,2013-01-25 22:20:00,
2013-01-25 14:25:00,50.2,43.9,30.04,SSW,201,1.0,1.0,79,0.00,,,0.03,Wunderground v.1.15,2013-01-25 22:25:00,
2013-01-25 14:30:00,50.1,43.8,30.04,SSW,201,0.0,0.0,79,0.00,,,0.03,Wunderground v.1.15,2013-01-25 22:30:00,
2013-01-25 14:35:00,50.3,43.7,30.03,SSW,201,0.0,0.0,78,0.00,,,0.03,Wunderground v.1.15,2013-01-25 22:35:00,
2013-01-25 14:40:00,50.1,42.8,30.03,SSW,202,0.0,0.0,76,0.00,,,0.03,Wunderground v.1.15,2013-01-25 22:40:00,
2013-01-25 14:45:00,50.3,43.4,30.03,SSW,202,0.0,0.0,77,0.00,,,0.03,Wunderground v.1.15,2013-01-25 22:45:00,
2013-01-25 14:50:00,50.5,42.9,30.03,SSW,202,0.0,0.0,75,0.00,,,0.03,Wunderground v.1.15,2013-01-25 22:50:00,
2013-01-25 14:55:00,50.9,43.3,30.03,SSW,202,0.0,0.0,75,0.00,,,0.03,Wunderground v.1.15,2013-01-25 22:55:00,
2013-01-25 15:01:00,51.0,43.4,30.03,South,179,0.0,0.0,75,0.00,,,0.03,Wunderground v.1.15,2013-01-25 23:01:00,
2013-01-25 15:06:00,50.6,43.7,30.02,SE,138,2.0,2.0,77,0.00,,,0.03,Wunderground v.1.15,2013-01-25 23:06:00,
2013-01-25 15:11:00,50.3,43.4,30.02,ESE,121,2.0,4.0,77,0.00,,,0.03,Wunderground v.1.15,2013-01-25 23:11:00,
2013-01-25 15:16:00,49.8,43.2,30.02,ESE,117,0.0,4.0,78,0.00,,,0.03,Wunderground v.1.15,2013-01-25 23:16:00,
2013-01-25 15:21:00,49.7,43.5,30.02,ESE,113,0.0,3.0,79,0.00,,,0.03,Wunderground v.1.15,2013-01-25 23:21:00,
2013-01-25 15:26:00,49.9,43.6,30.02,ESE,110,0.0,3.0,79,0.00,,,0.03,Wunderground v.1.15,2013-01-25 23:26:00,
2013-01-25 15:31:00,49.8,43.2,30.02,ESE,109,1.0,2.0,78,0.00,,,0.03,Wunderground v.1.15,2013-01-25 23:31:00,
2013-01-25 15:36:00,49.5,42.9,30.02,ESE,109,0.0,2.0,78,0.00,,,0.03,Wunderground v.1.15,2013-01-25 23:36:00,
2013-01-25 15:41:00,49.4,42.8,30.02,ESE,108,0.0,2.0,78,0.00,,,0.03,Wunderground v.1.15,2013-01-25 23:41:00,
2013-01-25 15:46:00,49.4,43.2,30.02,ESE,109,0.0,2.0,79,0.00,,,0.03,Wunderground v.1.15,2013-01-25 23:46:00,
2013-01-25 15:51:00,49.4,43.2,30.02,ESE,109,1.0,1.0,79,0.00,,,0.03,Wunderground v.1.15,2013-01-25 23:51:00,
2013-01-25 15:56:00,49.4,43.2,30.02,ESE,109,0.0,1.0,79,0.00,,,0.03,Wunderground v.1.15,2013-01-25 23:56:00,
2013-01-25 16:01:00,49.3,43.1,30.02,ESE,109,2.0,3.0,79,0.00,,,0.03,Wunderground v.1.15,2013-01-26 00:01:00,
2013-01-25 16:06:00,49.3,43.1,30.02,ESE,110,2.0,4.0,79,0.00,,,0.03,Wunderground v.1.15,2013-01-26 00:06:00,
2013-01-25 16:11:00,49.3,43.1,30.02,ESE,110,2.0,2.0,79,0.00,,,0.03,Wunderground v.1.15,2013-01-26 00:11:00,
2013-01-25 16:16:00,49.4,43.2,30.02,ESE,111,2.0,3.0,79,0.00,,,0.03,Wunderground v.1.15,2013-01-26 00:16:00,
2013-01-25 16:21:00,49.6,43.4,30.02,ESE,111,0.0,2.0,79,0.00,,,0.03,Wunderground v.1.15,2013-01-26 00:21:00,
2013-01-25 16:26:00,49.6,43.4,30.02,ESE,111,0.0,2.0,79,0.00,,,0.03,Wunderground v.1.15,2013-01-26 00:26:00,
2013-01-25 16:32:00,49.7,43.5,30.02,ESE,111,0.0,1.0,79,0.00,,,0.03,Wunderground v.1.15,2013-01-26 00:32:00,
2013-01-25 16:36:00,49.5,43.3,30.02,ESE,111,0.0,2.0,79,0.00,,,0.03,Wunderground v.1.15,2013-01-26 00:36:00,
2013-01-25 16:42:00,49.4,43.2,30.02,ESE,111,0.0,0.0,79,0.00,,,0.03,Wunderground v.1.15,2013-01-26 00:42:00,
2013-01-25 16:47:00,49.3,43.4,30.02,ESE,111,0.0,0.0,80,0.00,,,0.03,Wunderground v.1.15,2013-01-26 00:47:00,
2013-01-25 16:52:00,49.2,43.3,30.01,ESE,111,0.0,0.0,80,0.00,,,0.03,Wunderground v.1.15,2013-01-26 00:52:00,
2013-01-25 16:57:00,49.0,43.1,30.01,ESE,111,0.0,0.0,80,0.00,,,0.03,Wunderground v.1.15,2013-01-26 00:57:00,
2013-01-25 17:02:00,48.8,42.9,30.01,ESE,111,0.0,0.0,80,0.00,,,0.03,Wunderground v.1.15,2013-01-26 01:02:00,
2013-01-25 17:07:00,48.7,42.8,30.01,ESE,111,0.0,0.0,80,0.00,,,0.03,Wunderground v.1.15,2013-01-26 01:07:00,
2013-01-25 17:12:00,48.5,42.9,30.01,ESE,111,0.0,0.0,81,0.00,,,0.03,Wunderground v.1.15,2013-01-26 01:12:00,
2013-01-25 17:17:00,48.3,42.7,30.01,ESE,111,0.0,0.0,81,0.00,,,0.03,Wunderground v.1.15,2013-01-26 01:17:00,
2013-01-25 17:22:00,48.2,42.6,30.02,ESE,111,0.0,0.0,81,0.00,,,0.03,Wunderground v.1.15,2013-01-26 01:22:00,
2013-01-25 17:27:00,47.9,42.3,30.02,ESE,111,0.0,0.0,81,0.00,,,0.03,Wunderground v.1.15,2013-01-26 01:27:00,
2013-01-25 17:32:00,47.7,42.2,30.01,ESE,111,0.0,0.0,81,0.00,,,0.03,Wunderground v.1.15,2013-01-26 01:32:00,
2013-01-25 17:37:00,47.4,41.9,30.01,ESE,114,0.0,0.0,81,0.00,,,0.03,Wunderground v.1.15,2013-01-26 01:37:00,
2013-01-25 17:42:00,47.1,41.9,30.02,ESE,114,0.0,1.0,82,0.00,,,0.03,Wunderground v.1.15,2013-01-26 01:42:00,
2013-01-25 17:47:00,46.9,41.7,30.02,ESE,114,0.0,1.0,82,0.00,,,0.03,Wunderground v.1.15,2013-01-26 01:47:00,
2013-01-25 17:52:00,46.7,41.5,30.02,ESE,115,0.0,0.0,82,0.00,,,0.03,Wunderground v.1.15,2013-01-26 01:52:00,
2013-01-25 17:57:00,46.4,41.2,30.02,ESE,114,0.0,0.0,82,0.00,,,0.03,Wunderground v.1.15,2013-01-26 01:57:00,
2013-01-25 18:02:00,46.2,41.3,30.02,ESE,114,0.0,0.0,83,0.00,,,0.03,Wunderground v.1.15,2013-01-26 02:02:00,
2013-01-25 18:07:00,45.9,41.0,30.02,ESE,115,0.0,0.0,83,0.00,,,0.03,Wunderground v.1.15,2013-01-26 02:07:00,
2013-01-25 18:12:00,45.7,41.1,30.02,ESE,114,0.0,0.0,84,0.00,,,0.03,Wunderground v.1.15,2013-01-26 02:12:00,
2013-01-25 18:17:00,45.5,40.9,30.01,ESE,114,0.0,1.0,84,0.00,,,0.03,Wunderground v.1.15,2013-01-26 02:17:00,
2013-01-25 18:22:00,45.4,41.2,30.01,ESE,115,0.0,0.0,85,0.00,,,0.03,Wunderground v.1.15,2013-01-26 02:22:00,
2013-01-25 18:27:00,45.2,41.0,30.01,ESE,115,0.0,0.0,85,0.00,,,0.03,Wunderground v.1.15,2013-01-26 02:27:00,
2013-01-25 18:32:00,45.0,40.8,30.01,ESE,115,0.0,0.0,85,0.00,,,0.03,Wunderground v.1.15,2013-01-26 02:32:00,
2013-01-25 18:37:00,44.7,40.5,30.01,ESE,115,0.0,0.0,85,0.00,,,0.03,Wunderground v.1.15,2013-01-26 02:37:00,
2013-01-25 18:42:00,44.4,40.5,30.01,ESE,115,0.0,0.0,86,0.00,,,0.03,Wunderground v.1.15,2013-01-26 02:42:00,
2013-01-25 18:48:00,44.1,40.2,30.01,ESE,115,0.0,0.0,86,0.00,,,0.03,Wunderground v.1.15,2013-01-26 02:48:00,
2013-01-25 18:53:00,43.9,40.0,30.01,ESE,115,0.0,0.0,86,0.00,,,0.03,Wunderground v.1.15,2013-01-26 02:53:00,
2013-01-25 18:58:00,43.6,40.0,30.01,ESE,115,0.0,0.0,87,0.00,,,0.03,Wunderground v.1.15,2013-01-26 02:58:00,
2013-01-25 19:03:00,43.6,40.0,30.00,ESE,115,0.0,0.0,87,0.00,,,0.03,Wunderground v.1.15,2013-01-26 03:03:00,
2013-01-25 19:08:00,43.4,39.8,30.00,ESE,115,0.0,0.0,87,0.00,,,0.03,Wunderground v.1.15,2013-01-26 03:08:00,
2013-01-25 19:13:00,43.3,40.0,30.00,ESE,115,0.0,0.0,88,0.00,,,0.03,Wunderground v.1.15,2013-01-26 03:13:00,
2013-01-25 19:18:00,43.4,40.1,30.01,ESE,115,0.0,0.0,88,0.00,,,0.03,Wunderground v.1.15,2013-01-26 03:18:00,
2013-01-25 19:23:00,43.4,40.1,30.01,ESE,115,0.0,0.0,88,0.00,,,0.03,Wunderground v.1.15,2013-01-26 03:23:00,
2013-01-25 19:28:00,43.4,40.4,30.01,ESE,117,0.0,0.0,89,0.00,,,0.03,Wunderground v.1.15,2013-01-26 03:28:00,
2013-01-25 19:33:00,43.5,40.5,30.01,ESE,121,0.0,1.0,89,0.00,,,0.03,Wunderground v.1.15,2013-01-26 03:33:00,
2013-01-25 19:38:00,43.6,40.6,30.01,ESE,121,0.0,1.0,89,0.00,,,0.03,Wunderground v.1.15,2013-01-26 03:38:00,
2013-01-25 19:43:00,43.7,41.0,30.01,SE,126,0.0,2.0,90,0.00,,,0.03,Wunderground v.1.15,2013-01-26 03:43:00,
2013-01-25 19:48:00,43.8,41.1,30.01,SE,127,0.0,2.0,90,0.00,,,0.03,Wunderground v.1.15,2013-01-26 03:48:00,
2013-01-25 19:53:00,44.0,41.3,30.01,SE,128,0.0,1.0,90,0.00,,,0.03,Wunderground v.1.15,2013-01-26 03:53:00,
2013-01-25 19:58:00,44.1,41.4,30.00,SE,140,0.0,1.0,90,0.00,,,0.03,Wunderground v.1.15,2013-01-26 03:58:00,
2013-01-25 20:03:00,44.2,41.5,30.00,South,179,1.0,3.0,90,0.00,,,0.03,Wunderground v.1.15,2013-01-26 04:03:00,
2013-01-25 20:09:00,44.3,41.6,30.00,South,182,0.0,3.0,90,0.00,,,0.03,Wunderground v.1.15,2013-01-26 04:09:00,
2013-01-25 20:14:00,44.2,41.5,30.00,South,182,0.0,0.0,90,0.00,,,0.03,Wunderground v.1.15,2013-01-26 04:14:00,
2013-01-25 20:19:00,44.1,41.4,30.00,South,180,0.0,1.0,90,0.00,,,0.03,Wunderground v.1.15,2013-01-26 04:19:00,
2013-01-25 20:24:00,44.0,41.3,30.01,South,180,0.0,0.0,90,0.00,,,0.03,Wunderground v.1.15,2013-01-26 04:24:00,
2013-01-25 20:29:00,43.9,41.2,30.01,South,180,0.0,0.0,90,0.00,,,0.03,Wunderground v.1.15,2013-01-26 04:29:00,
2013-01-25 20:34:00,43.8,41.1,30.00,South,180,0.0,0.0,90,0.00,,,0.03,Wunderground v.1.15,2013-01-26 04:34:00,
2013-01-25 20:39:00,43.8,41.1,30.00,South,180,0.0,0.0,90,0.00,,,0.03,Wunderground v.1.15,2013-01-26 04:39:00,
2013-01-25 20:44:00,43.7,40.7,30.00,South,180,0.0,0.0,89,0.00,,,0.03,Wunderground v.1.15,2013-01-26 04:44:00,
2013-01-25 20:49:00,43.6,40.6,30.00,South,180,0.0,0.0,89,0.00,,,0.03,Wunderground v.1.15,2013-01-26 04:49:00,
2013-01-25 20:54:00,43.5,40.5,30.00,South,180,0.0,0.0,89,0.00,,,0.03,Wunderground v.1.15,2013-01-26 04:54:00,
2013-01-25 20:59:00,43.4,40.4,30.00,South,180,0.0,0.0,89,0.00,,,0.03,Wunderground v.1.15,2013-01-26 04:59:00,
2013-01-25 21:00:00,43.4,40.4,30.00,South,180,0.0,0.0,89,0.00,,,0.03,Wunderground v.1.15,2013-01-26 05:00:00,
2013-01-25 21:01:00,43.4,40.4,30.00,South,180,0.0,0.0,89,0.00,,,0.03,Wunderground v.1.15,2013-01-26 05:01:00,
2013-01-25 21:06:00,43.2,40.2,30.00,South,180,0.0,0.0,89,0.00,,,0.03,Wunderground v.1.15,2013-01-26 05:06:00,
2013-01-25 21:11:00,42.9,39.9,30.00,South,180,0.0,0.0,89,0.00,,,0.03,Wunderground v.1.15,2013-01-26 05:11:00,
2013-01-25 21:16:00,42.7,39.4,30.00,South,180,0.0,0.0,88,0.00,,,0.03,Wunderground v.1.15,2013-01-26 05:16:00,
2013-01-25 21:21:00,42.7,39.7,29.99,South,179,0.0,0.0,89,0.00,,,0.03,Wunderground v.1.15,2013-01-26 05:21:00,
2013-01-25 21:26:00,42.7,39.7,30.00,South,179,0.0,0.0,89,0.00,,,0.03,Wunderground v.1.15,2013-01-26 05:26:00,
2013-01-25 21:31:00,42.5,39.5,30.00,South,182,0.0,0.0,89,0.00,,,0.03,Wunderground v.1.15,2013-01-26 05:31:00,
2013-01-25 21:36:00,42.4,39.4,30.00,South,188,0.0,2.0,89,0.00,,,0.03,Wunderground v.1.15,2013-01-26 05:36:00,
2013-01-25 21:41:00,42.3,39.6,30.00,South,191,0.0,1.0,90,0.00,,,0.03,Wunderground v.1.15,2013-01-26 05:41:00,
2013-01-25 21:46:00,42.2,39.2,30.00,SSW,192,0.0,2.0,89,0.00,,,0.03,Wunderground v.1.15,2013-01-26 05:46:00,
2013-01-25 21:51:00,42.1,39.1,30.00,SSW,192,1.0,1.0,89,0.00,,,0.03,Wunderground v.1.15,2013-01-26 05:51:00,
2013-01-25 21:56:00,42.0,39.0,30.00,SSW,197,0.0,3.0,89,0.00,,,0.03,Wunderground v.1.15,2013-01-26 05:56:00,
2013-01-25 22:01:00,42.1,39.1,29.99,SSW,198,1.0,2.0,89,0.00,,,0.03,Wunderground v.1.15,2013-01-26 06:01:00,
2013-01-25 22:06:00,42.1,39.1,29.99,SSW,198,0.0,3.0,89,0.00,,,0.03,Wunderground v.1.15,2013-01-26 06:06:00,
2013-01-25 22:11:00,42.2,39.2,29.99,SSW,198,0.0,4.0,89,0.00,,,0.03,Wunderground v.1.15,2013-01-26 06:11:00,
2013-01-25 22:16:00,42.5,39.5,30.00,SSW,204,0.0,4.0,89,0.00,,,0.03,Wunderground v.1.15,2013-01-26 06:16:00,
2013-01-25 22:21:00,42.7,39.7,29.99,SSW,193,1.0,3.0,89,0.00,,,0.03,Wunderground v.1.15,2013-01-26 06:21:00,
2013-01-25 22:26:00,43.0,39.7,29.99,SSW,205,1.0,5.0,88,0.00,,,0.03,Wunderground v.1.15,2013-01-26 06:26:00,
2013-01-25 22:31:00,43.2,39.9,29.99,SSW,211,3.0,6.0,88,0.00,,,0.03,Wunderground v.1.15,2013-01-26 06:31:00,
2013-01-25 22:36:00,43.3,39.7,29.99,SSW,210,3.0,8.0,87,0.00,,,0.03,Wunderground v.1.15,2013-01-26 06:36:00,
2013-01-25 22:41:00,43.3,39.7,29.99,SSW,202,0.0,2.0,87,0.00,,,0.03,Wunderground v.1.15,2013-01-26 06:41:00,
2013-01-25 22:46:00,43.2,39.6,29.99,SSW,199,1.0,3.0,87,0.00,,,0.03,Wunderground v.1.15,2013-01-26 06:46:00,
2013-01-25 22:51:00,43.1,39.5,29.99,SSW,194,0.0,3.0,87,0.00,,,0.03,Wunderground v.1.15,2013-01-26 06:51:00,
2013-01-25 22:56:00,43.0,39.4,29.99,SSW,199,0.0,3.0,87,0.00,,,0.03,Wunderground v.1.15,2013-01-26 06:56:00,
2013-01-25 23:01:00,42.9,39.3,29.99,SSW,194,2.0,2.0,87,0.00,,,0.03,Wunderground v.1.15,2013-01-26 07:01:00,
2013-01-25 23:06:00,42.8,39.2,29.99,SSW,197,1.0,6.0,87,0.00,,,0.03,Wunderground v.1.15,2013-01-26 07:06:00,
2013-01-25 23:11:00,42.8,39.2,29.99,SSW,192,0.0,3.0,87,0.00,,,0.03,Wunderground v.1.15,2013-01-26 07:11:00,
2013-01-25 23:16:00,42.7,39.1,29.99,South,186,3.0,3.0,87,0.00,,,0.03,Wunderground v.1.15,2013-01-26 07:16:00,
2013-01-25 23:21:00,42.7,39.1,29.99,South,191,0.0,1.0,87,0.00,,,0.03,Wunderground v.1.15,2013-01-26 07:21:00,
2013-01-25 23:26:00,42.6,39.0,29.99,South,171,0.0,3.0,87,0.00,,,0.03,Wunderground v.1.15,2013-01-26 07:26:00,
2013-01-25 23:31:00,42.6,39.0,29.99,South,188,0.0,3.0,87,0.00,,,0.03,Wunderground v.1.15,2013-01-26 07:31:00,
2013-01-25 23:36:00,42.5,39.2,29.99,South,188,0.0,7.0,88,0.00,,,0.03,Wunderground v.1.15,2013-01-26 07:36:00,
2013-01-25 23:41:00,42.5,39.2,29.99,SSW,196,3.0,5.0,88,0.00,,,0.03,Wunderground v.1.15,2013-01-26 07:41:00,
2013-01-25 23:46:00,42.4,39.1,29.99,SSW,196,1.0,5.0,88,0.00,,,0.03,Wunderground v.1.15,2013-01-26 07:46:00,
2013-01-25 23:51:00,42.3,39.0,29.99,SSW,211,1.0,5.0,88,0.00,,,0.03,Wunderground v.1.15,2013-01-26 07:51:00,
2013-01-25 23:56:00,42.3,39.0,29.99,South,190,2.0,5.0,88,0.00,,,0.03,Wunderground v.1.15,2013-01-26 07:56:00,